Find Starlink 5358

NORAD ID: 57143 Int'l Des: 2023-090 Owner: SPXS Country: US Constellation: starlink operational
LEOCIRCULAR

当前视图

正在加载3D地球...

关于 Starlink 5358

正在加载描述...

即将过境

Passes for default location (London). Set your location on the main map for personalized predictions.

高度历史

Loading altitude history...

两行轨道根数

1 57143U 23090AU 26151.06362081 .00000044 00000-0 11131-4 0 9994
2 57143 43.0035 157.9461 0001214 283.0538 77.0178 15.27575050162957
Epoch: May 31, 2026 • Age: 16 hours

当前状态

高度 483.0 km
速度 7.63 km/s
星下点 -3.19°S, 3.65°E
发射日期 Jun 23, 2023
运行时间 2.9 years
类型 internet

技术详情

分类 Payload
质量 305.00 kg
干质量 290.00 kg
总质量 305.00 kg
长度 0.20 m
直径 2.80 m
跨度 9.00 m
形状 Box + pan
制造商 SPXS
平台类型 Starlink
阶段状态 In Orbit
所有者/国家 SPXS/US

Most Searched